Showing default

ESSA 6 (TOS-D), 3035

Orbit data source: Space-Track

ESSA 6 (TOS-D), 3035 is a payload satellite owned by ESSA (US) in SSO that was launched on Fri, 10 Nov 1967 UTC via a THOR DELTA E1 launch vehicle from the Air Force Western Test Range (AFWTR). Payload-class satellites include a variety of spacecraft equipped with specific instruments for various scientific and technological missions. These include communications satellites like Starlink; space stations such as the ISS; scientific satellites like the Hubble; Earth observation satellites from companies like Planet Labs, Umbra, and HawkEye 360; GPS; miniature CubeSats for education and research; and military/defense satellites.

Loading next visibility...
Identifier
3035, 1967-114A
Orbit
SSO
Country
Flag of USUS
Related business
Manufacturer
RCA/East Windsor
Mission
Non-operational Civil Weather
Bus & Motor
TIROS I, Unknown motor
Mass
135 kg wet, 135 kg dry
Launch date (UTC)
1967-11-10 (58 years ago)
Launch vehicle
THOR DELTA E1
Launch site
Air Force Western Test Range (AFWTR)
Object type
Payload
Rocket body
Debris
Shape & HBR
Cyl, 0.6 m
Radar Cross Section
0.994 m², Medium (>0.1 m² and < 1m²)

Expand to show TLE details & history
Last TLE update: 8 hours ago

TLE from 8 hours ago
0 ESSA 6 (TOS-D)
1 03035U 67114A   25258.56906366 -.00000043  00000-0  24626-4 0  9995
2 03035 102.0120 354.9237 0048464 287.7983  84.0625 12.54244795648187
Epoch: 2025-09-15T13:39Z
TLE epoch observation values (Epoch: 2025-09-15T13:39:27.1Z)
Latitude
12.10102°
Longitude
152.68713°
Altitude
1,444.868 km
Speed
7.142 km/s
True Right ascension
23h 29m 17s
True Declination
12° 02' 13"
Sunlit
Object was in full shadow at epoch
Visualization orbit readout
Latitude
Unknown
Longitude
Unknown
Altitude
Unknown
Speed
Unknown
Apparent Right ascension
Unknown
Apparent Declination
Unknown
Sunlit
N/A
Visualization observer readout
Local Sidereal Time
13:54:34
Azimuth
Unknown
Elevation
Unknown
Doppler factor
Unknown
Orbital elements
Apogee altitude
1,482.258 km
Perigee altitude
1,406.436 km
Semi-major axis
7,822.484 km
Eccentricity
0.00485
Inclination
102.012°
RAAN
354.9237°
Arg. of periapsis
287.7983°
True anomaly
84.61522°
Mean anomaly
84.0625°
Eccentric anomaly
84.33882°
Mean motion
3.13708 °/min
Orbital period
114.76 mins
BSTAR
0.000024626
Loading maneuver chart data...
Computing Atmospheric mass density...
Loading historical data...
Loading historical data...
Loading historical data...
Loading historical data...
Loading historical data...
Loading historical data...
Loading historical data...
Other satellites on launch #114 in the year 1967 (1967-11-10 UTC)

Documentation

Showing up to 5 results
|